Tillbaka till svenska Fidonet
English   Information   Debug  
FILM   0/18
FNEWS_PUBLISH   4694
FN_SYSOP   42000
FN_SYSOP_OLD1   71952
FTP_FIDO   0/2
FTSC_PUBLIC   0/13895
FUNNY   0/4886
GENEALOGY.EUR   0/71
GET_INFO   105
GOLDED   0/408
HAM   4620/16252
HOLYSMOKE   0/6791
HOT_SITES   0/1
HTMLEDIT   0/71
HUB203   466
HUB_100   264
HUB_400   39
HUMOR   0/29
IC   0/2851
INTERNET   0/424
INTERUSER   0/3
IP_CONNECT   719
JAMNNTPD   0/233
JAMTLAND   0/47
KATTY_KORNER   0/41
LAN   0/16
LINUX-USER   0/19
LINUXHELP   0/1155
LINUX   0/22251
LINUX_BBS   0/957
mail   18.68
mail_fore_ok   249
MENSA   0/341
MODERATOR   0/102
MONTE   0/992
MOSCOW_OKLAHOMA   0/1245
MUFFIN   0/783
MUSIC   0/321
N203_STAT   938
N203_SYSCHAT   313
NET203   321
NET204   69
NET_DEV   0/10
NORD.ADMIN   0/101
NORD.CHAT   0/2572
NORD.FIDONET   189
NORD.HARDWARE   0/28
NORD.KULTUR   0/114
NORD.PROG   0/32
NORD.SOFTWARE   0/88
NORD.TEKNIK   0/58
NORD   0/453
OCCULT_CHAT   0/93
OS2BBS   0/787
OS2DOSBBS   0/580
OS2HW   0/42
OS2INET   0/37
OS2LAN   0/134
OS2PROG   0/36
OS2REXX   0/113
OS2USER-L   207
OS2   0/4806
OSDEBATE   0/18996
PASCAL   0/490
PERL   0/457
PHP   0/45
POINTS   0/405
POLITICS   0/29554
POL_INC   0/14731
PSION   103
R20_ADMIN   1129
R20_AMATORRADIO   0/2
R20_BEST_OF_FIDONET   14
R20_CHAT   0/893
R20_DEPP   0/3
R20_DEV   399
R20_ECHO2   1613
R20_ECHOPRES   0/35
R20_ESTAT   0/719
R20_FIDONETPROG...
...RAM.MYPOINT
  0/2
R20_FIDONETPROGRAM   0/22
R20_FIDONET   0/248
R20_FILEFIND   0/24
R20_FILEFOUND   0/22
R20_HIFI   0/3
R20_INFO2   3504
R20_INTERNET   0/12940
R20_INTRESSE   0/60
R20_INTR_KOM   0/99
R20_KANDIDAT.CHAT   42
R20_KANDIDAT   28
R20_KOM_DEV   112
R20_KONTROLL   0/13360
R20_KORSET   0/18
R20_LOKALTRAFIK   0/24
R20_MODERATOR   0/1852
R20_NC   76
R20_NET200   245
R20_NETWORK.OTH...
...ERNETS
  0/13
R20_OPERATIVSYS...
...TEM.LINUX
  0/44
R20_PROGRAMVAROR   0/1
R20_REC2NEC   534
R20_SFOSM   0/341
R20_SF   0/108
R20_SPRAK.ENGLISH   0/1
R20_SQUISH   107
R20_TEST   2
R20_WORST_OF_FIDONET   20
RAR   0/9
RA_MULTI   106
RA_UTIL   0/162
REGCON.EUR   0/2066
REGCON   0/13
SCIENCE   0/1206
SF   0/239
SHAREWARE_SUPPORT   4651/5146
SHAREWRE   0/14
SIMPSONS   0/169
STATS_OLD1   0/2539.065
STATS_OLD2   0/2530
STATS_OLD3   0/2395.095
STATS_OLD4   0/1692.25
SURVIVOR   0/495
SYSOPS_CORNER   0/3
SYSOP   0/84
TAGLINES   0/112
TEAMOS2   0/4530
TECH   0/2617
TEST.444   0/105
TRAPDOOR   0/19
TREK   0/755
TUB   0/290
UFO   0/40
UNIX   0/1316
USA_EURLINK   0/102
USR_MODEMS   0/1
VATICAN   0/2740
VIETNAM_VETS   0/14
VIRUS   0/378
VIRUS_INFO   0/201
VISUAL_BASIC   0/473
WHITEHOUSE   0/5187
WIN2000   0/101
WIN32   0/30
WIN95   0/4291
WIN95_OLD1   57469/70272
WINDOWS   0/1517
WWB_SYSOP   0/419
WWB_TECH   0/810
ZCC-PUBLIC   0/1
ZEC   4

 
4DOS   0/134
ABORTION   0/7
ALASKA_CHAT   0/506
ALLFIX_FILE   0/1313
ALLFIX_FILE_OLD1   0/7997
ALT_DOS   0/152
AMATEUR_RADIO   0/1039
AMIGASALE   0/14
AMIGA   0/331
AMIGA_INT   0/1
AMIGA_PROG   0/20
AMIGA_SYSOP   0/26
ANIME   0/15
ARGUS   0/924
ASCII_ART   0/340
ASIAN_LINK   0/651
ASTRONOMY   0/417
AUDIO   0/92
AUTOMOBILE_RACING   0/105
BABYLON5   0/17862
BAG   135
BATPOWER   0/361
BBBS.ENGLISH   0/382
BBSLAW   0/109
BBS_ADS   0/5290
BBS_INTERNET   0/507
BIBLE   0/3563
BINKD   0/1119
BINKLEY   0/215
BLUEWAVE   0/2173
CABLE_MODEMS   0/25
CBM   0/46
CDRECORD   0/66
CDROM   0/20
CLASSIC_COMPUTER   0/378
COMICS   0/15
CONSPRCY   0/899
COOKING   38769
COOKING_OLD1   0/24719
COOKING_OLD2   0/40862
COOKING_OLD3   0/37489
COOKING_OLD4   0/35496
COOKING_OLD5   9370
C_ECHO   0/189
C_PLUSPLUS   0/31
DIRTY_DOZEN   0/201
DOORGAMES   0/2138
DOS_INTERNET   0/196
duplikat   6101
ECHOLIST   0/18295
EC_SUPPORT   0/318
ELECTRONICS   0/359
ELEKTRONIK.GER   1534
ENET.LINGUISTIC   0/13
ENET.POLITICS   0/4
ENET.SOFT   0/11701
ENET.SYSOP   34184
ENET.TALKS   0/32
ENGLISH_TUTOR   0/2000
EVOLUTION   0/1335
FDECHO   0/217
FDN_ANNOUNCE   0/7068
FIDONEWS   24635
FIDONEWS_OLD1   0/49742
FIDONEWS_OLD2   0/35949
FIDONEWS_OLD3   0/30874
FIDONEWS_OLD4   0/37224
FIDO_SYSOP   12899
FIDO_UTIL   0/180
FILEFIND   0/209
FILEGATE   0/212
Möte HAM, 16252 texter
 lista första sista föregående nästa
Text 2797, 745 rader
Skriven 2009-02-19 23:30:21 av Amsat List (1:323/120.0)
Ärende: [keps]  orb09050.amsa
=============================
[keps]  orb09050.amsa

Return-Path: <keps-bounces@amsat.org>
X-Rcpt: craig.healy@chowda.com
X-UIDL: 1235102682.44881

SB KEPS @ AMSAT  $ORB09050.O
Orbital Elements  09050.OSCAR

HR AMSAT ORBITAL ELEMENTS FOR OSCAR SATELLITES
FROM WA5QGD FORT WORTH,TX February 19, 2009
Send Subscribe/unsubscribe to KEPS at 
http://www.amsat.org/mailman/listinfo/keps
BID: ORB09050.O
TO ALL RADIO AMATEURS BT

Satellite: AO-07
Catalog number: 07530
Epoch time:      09049.49647477
Element set:    0407
Inclination:      101.4403 deg
RA of node:       078.4796 deg
Eccentricity:    0.0012089
Arg of perigee:   140.7184 deg
Mean anomaly:     219.4770 deg
Mean motion:   12.53575372 rev/day
Decay rate:       -2.7e-07 rev/day^2
Epoch rev:           56784
Checksum:              323

Satellite: AO-10
Catalog number: 14129
Epoch time:      09050.24155992
Element set:     622
Inclination:      025.9943 deg
RA of node:       170.6626 deg
Eccentricity:    0.5973312
Arg of perigee:   199.4288 deg
Mean anomaly:     121.5356 deg
Mean motion:   02.05868041 rev/day
Decay rate:      -1.68e-06 rev/day^2
Epoch rev:           19319
Checksum:              316

Satellite: UO-11
Catalog number: 14781
Epoch time:      09049.13226665
Element set:    0890
Inclination:      098.1240 deg
RA of node:       092.4219 deg
Eccentricity:    0.0009297
Arg of perigee:   007.8418 deg
Mean anomaly:     352.2969 deg
Mean motion:   14.79693862 rev/day
Decay rate:      -1.61e-06 rev/day^2
Epoch rev:           34022
Checksum:              320

Satellite: RS-15
Catalog number: 23439
Epoch time:      09049.66522953
Element set:    0187
Inclination:      064.8148 deg
RA of node:       096.4783 deg
Eccentricity:    0.0146010
Arg of perigee:   074.6103 deg
Mean anomaly:     287.0898 deg
Mean motion:   11.27553116 rev/day
Decay rate:       -3.9e-07 rev/day^2
Epoch rev:           58275
Checksum:              329

Satellite: FO-29
Catalog number: 24278
Epoch time:      09049.75246804
Element set:     974
Inclination:      098.5715 deg
RA of node:       299.5973 deg
Eccentricity:    0.0350046
Arg of perigee:   297.3039 deg
Mean anomaly:     059.2861 deg
Mean motion:   13.52942113 rev/day
Decay rate:       -7.6e-07 rev/day^2
Epoch rev:           61773
Checksum:              353

Satellite: SO-33
Catalog number: 25509
Epoch time:      09049.23118486
Element set:    0390
Inclination:      031.4340 deg
RA of node:       005.1235 deg
Eccentricity:    0.0354171
Arg of perigee:   018.4021 deg
Mean anomaly:     342.9021 deg
Mean motion:   14.28240775 rev/day
Decay rate:       1.85e-06 rev/day^2
Epoch rev:           53881
Checksum:              272

Satellite: AO-40
Catalog number: 26609
Epoch time:      09046.94460257
Element set:     193
Inclination:      008.7482 deg
RA of node:       032.7758 deg
Eccentricity:    0.7951066
Arg of perigee:   175.9734 deg
Mean anomaly:     201.0405 deg
Mean motion:   01.25584130 rev/day
Decay rate:      -1.27e-06 rev/day^2
Epoch rev:            3810
Checksum:              301

Satellite: VO-52
Catalog number: 28650
Epoch time:      09049.25163569
Element set:    0158
Inclination:      097.7562 deg
RA of node:       114.6854 deg
Eccentricity:    0.0028332
Arg of perigee:   058.8726 deg
Mean anomaly:     301.5270 deg
Mean motion:   14.81552991 rev/day
Decay rate:      -1.62e-06 rev/day^2
Epoch rev:           20503
Checksum:              313

Satellite: PO-63
Catalog number: 29712
Epoch time:      09050.68815665
Element set:     249
Inclination:      097.8443 deg
RA of node:       109.8322 deg
Eccentricity:    0.0013293
Arg of perigee:   300.1164 deg
Mean anomaly:     059.8722 deg
Mean motion:   14.80446541 rev/day
Decay rate:       4.66e-06 rev/day^2
Epoch rev:           11408
Checksum:              307

/EX
SB KEPS @ AMSAT  $ORB09050.D
Orbital Elements  09050.MICROS

HR AMSAT ORBITAL ELEMENTS FOR THE MICROSATS
FROM WA5QGD FORT WORTH,TX February 19, 2009
Send Subscribe/unsubscribe to KEPS at 
http://www.amsat.org/mailman/listinfo/keps
BID: ORB09050.D
TO ALL RADIO AMATEURS BT

Satellite: AO-16
Catalog number: 20439
Epoch time:      09050.45384473
Element set:     538
Inclination:      098.2645 deg
RA of node:       024.3014 deg
Eccentricity:    0.0011075
Arg of perigee:   156.3129 deg
Mean anomaly:     203.8572 deg
Mean motion:   14.31816236 rev/day
Decay rate:        5.0e-08 rev/day^2
Epoch rev:           99630
Checksum:              288

Satellite: LO-19
Catalog number: 20442
Epoch time:      09048.50391374
Element set:    0459
Inclination:      098.2293 deg
RA of node:       030.1591 deg
Eccentricity:    0.0012087
Arg of perigee:   159.1827 deg
Mean anomaly:     200.9839 deg
Mean motion:   14.32052763 rev/day
Decay rate:       -1.5e-07 rev/day^2
Epoch rev:           99618
Checksum:              311

Satellite: AO-27
Catalog number: 22825
Epoch time:      09049.48505675
Element set:     180
Inclination:      098.4210 deg
RA of node:       006.7377 deg
Eccentricity:    0.0007502
Arg of perigee:   253.9944 deg
Mean anomaly:     106.0404 deg
Mean motion:   14.29258344 rev/day
Decay rate:       -9.0e-07 rev/day^2
Epoch rev:           80295
Checksum:              305

Satellite: IO-26
Catalog number: 22826
Epoch time:      09049.42611725
Element set:    0899
Inclination:      098.4140 deg
RA of node:       007.4810 deg
Eccentricity:    0.0008061
Arg of perigee:   250.3833 deg
Mean anomaly:     109.6469 deg
Mean motion:   14.29509664 rev/day
Decay rate:        3.0e-08 rev/day^2
Epoch rev:           80304
Checksum:              300

